OPS 4682 DEB, 38383

Orbit data source: Space-Track

OPS 4682 DEB, 38383 is space debris in LEO originally from a launch on Sat, 03 Apr 1965 UTC launched from the Air Force Western Test Range (AFWTR). Debris objects in space refer to the collection of defunct objects orbiting the Earth. Examples of debris include non-operational satellites, rocket bodies, and fragments generated from explosions, collisions, or faulty payload assembly.

Loading next visibility...
Identifier
38383, 1965-027CL
Orbit
LEO
Country
Flag of USUS
Related business
Manufacturer
Unknown
Mission
Spacecraft
Bus & Motor
Unknown
Mass
Unknown
Launch date (UTC)
1965-04-03 (61 years ago)
Launch vehicle
Unknown
Launch site
Air Force Western Test Range (AFWTR)
Object type
Payload
Rocket body
Debris
Shape & HBR
Unknown shape, 0.1 m
Radar Cross Section
Small (<0.1 m²)

Expand to show TLE details & history
Last TLE update: 3 days ago

TLE from 3 days ago
0 OPS 4682 DEB
1 38383U 65027CL  26070.28280645  .00000483  00000-0  16469-2 0  9998
2 38383  90.2513   9.7242 0030854  13.6516 346.5432 12.96997866570915
Epoch: 2026-03-11T06:47Z
TLE epoch observation values (Epoch: 2026-03-11T06:47:14.477Z)
Latitude
-0.00001°
Longitude
98.9646°
Altitude
1,253.789 km
Speed
7.239 km/s
True Right ascension
00h 38m 53s
True Declination
0° 00' 00"
Sunlit
Object was in daylight at epoch
Visualization orbit readout
Latitude
Unknown
Longitude
Unknown
Altitude
Unknown
Speed
Unknown
Apparent Right ascension
Unknown
Apparent Declination
Unknown
Sunlit
N/A
Visualization observer readout
Local Sidereal Time
09:03:44
Azimuth
Unknown
Elevation
Unknown
Doppler factor
Unknown
Orbital elements
Apogee altitude
1,294.604 km
Perigee altitude
1,247.403 km
Semi-major axis
7,649.14 km
Eccentricity
0.00309
Inclination
90.2513°
RAAN
9.7242°
Arg. of periapsis
13.6516°
True anomaly
346.46061°
Mean anomaly
346.5432°
Eccentric anomaly
346.50194°
Mean motion
3.24432 °/min
Orbital period
110.96 mins
BSTAR
0.0016469
Loading maneuver chart data...
Computing Atmospheric mass density...
Loading historical data...
Loading historical data...
Loading historical data...
Loading historical data...
Loading historical data...
Loading historical data...
Loading historical data...

Documentation

Showing up to 5 results
|